Starlink 3660

operational
NORAD ID: 51977 Int'l Des: 2022-025 Owner: SPXS Country: US Constellation: starlink
LEOCIRCULAR

关于 Starlink 3660

正在加载描述...

实时位置

正在加载3D地球...

即将过境

高度历史

Altitude vs Time

uPlot chart will show altitude changes over time

两行轨道根数

1 51977U 22025X 25260.79778473 .00000969 00000-0 78990-4 0 9998
2 51977 53.2172 75.2727 0001264 91.8856 268.2281 15.08840542195237
Epoch: Sep 17, 2025 • Age: 26 hours

当前状态

高度 544.9 km
速度 7.60 km/s
星下点 50.70°N, 128.63°W
发射日期 Mar 9, 2022
运行时间 3.5 years
类型 internet

技术详情

分类 Payload
质量 297.00 kg
干质量 275.00 kg
总质量 297.00 kg
长度 0.20 m
直径 2.80 m
跨度 9.00 m
形状 Box + pan
制造商 SPXS
平台类型 Starlink
阶段状态 In Orbit
所有者/国家 SPXS/US

大型星座

Loading constellations...